Find Kosmos-1732

NORAD ID: 16593 Int'l Des: 1986-015 Owner: VTS Country: SU operational
別名: COSMOS 1732 spacetrack, celestrak
LEOCIRCULAR

現在のビュー

3D地球を読み込み中...

About Kosmos-1732

Kosmos-1732 (NORAD 16593) is a satellite launched Feb 11, 1986 by VTS of SU. It operates in LEO, CIRCULAR orbit with a mass of 1557.00 kg.

次回通過

Passes for default location (London). Set your location on the main map for personalized predictions.

高度履歴

Loading altitude history...

軌道要素

1 16593U 86015A 26264.21234998 -.00000024 00000-0 -50277-4 0 9995
2 16593 73.6120 176.6751 0027294 288.0492 71.7579 12.41028103839733
Epoch: Sep 21, 2026 • Age: 10 hours

現在のステータス

高度 1529.6 km
遠地点 / 近地点 N/A
速度 7.10 km/s
衛星直下点 63.59°N, 15.36°W
打ち上げ日 Feb 11, 1986
運用期間 40.6 years
タイプ other

技術仕様

分類 Payload
質量 1557.00 kg
乾燥質量 1557.00 kg
総質量 1557.00 kg
長さ 5.80 m
直径 2.40 m
スパン 17.80 m
形状 Cyl + 2 Pan + Ant
製造者 NPOPM
バスタイプ KAUR-1 11F666
フェーズステータス In Orbit
所有者/国 VTS/SU

Most Searched